AirNav   Duncan Aviation - Near you to keep you flying
 
 1038 users online  

KFES Festus Memorial Airport
Festus, Missouri, USA

GOING TO FESTUS?


FAA INFORMATION EFFECTIVE 26 JANUARY 2023

Location

FAA Identifier: FES
Lat/Long: 38-11-41.7950N 090-23-07.5350W
38-11.696583N 090-23.125583W
38.1949431,-90.3854264
(estimated)
Elevation: 433 ft. / 132.0 m (surveyed)
Variation: 02W (2020)
From city: 2 miles S of FESTUS, MO
Time zone: UTC -6 (UTC -5 during Daylight Saving Time)
Zip code: 63028

Airport Operations

Airport use: Open to the public
Activation date: 12/1941
Control tower: no
ARTCC: KANSAS CITY CENTER
FSS: SAINT LOUIS FLIGHT SERVICE STATION
NOTAMs facility: STL (NOTAM-D service available)
Attendance: 0800-1600
Wind indicator: lighted
Segmented circle: no
Lights: ACTVT MIRL RY 01/19 - CTAF
Beacon: white-green (lighted land airport)
Operates sunset to sunrise.

Airport Communications

CTAF/UNICOM: 122.7
SAINT LOUIS APPROACH: 123.7
SAINT LOUIS DEPARTURE: 123.7

Nearby radio navigation aids

VOR radial/distance  VOR name  Freq  Var
FAMr346/32.1FARMINGTON VORTAC115.7001E
TOYr210/39.3TROY VORTAC116.0004E

Airport Services

Fuel available: 100LL JET-A
100LL:CALL NUMBER ON OFFICE DOOR FOR FUEL
Parking: hangars and tiedowns
Airframe service: MAJOR
Powerplant service: MAJOR
Bottled oxygen: NONE
Bulk oxygen: NONE

Runway Information

Runway 1/19

Dimensions: 2202 x 49 ft. / 671 x 15 m
Surface: asphalt/aggregate friction seal coat, in fair condition
Weight bearing capacity: 
Single wheel: 8.0
Runway edge lights: medium intensity
Runway edge markings: NSTD BASIC MARKINGS; INCORRECT SPACING OF MARKINGS.
RUNWAY 1  RUNWAY 19
Latitude: 38-11.516367N38-11.876000N
Longitude: 090-23.156417W090-23.095117W
Elevation: 430.0 ft.432.0 ft.
Traffic pattern: leftleft
Runway heading: 010 magnetic, 008 true190 magnetic, 188 true
Markings: basic, in good conditionbasic, in good condition
Visual slope indicator: 2-box SAVASI on left
VASI OTS INDEFLY.
Runway end identifier lights: nono
Touchdown point: yes, no lightsyes, no lights
Obstructions: 31 ft. trees, 320 ft. from runway, 130 ft. right of centerline, 3:1 slope to clear
1-20 FT BRUSH & TREES 0-35FT FM RY END 190-250 FT R.; +1-12 FT BRUSH, 0-200 FT FM RY END, 65-200 FT L.
24 ft. trees, 230 ft. from runway, 250 ft. left and right of centerline, 1:1 slope to clear
1-28 FT TREES; BRUSH & ROAD 0-200 FT FM RY END 185-200 FT L; 1- 45 FT TREES & BRUSH 0-200 FT FM RY END 133-250 FT R.

Airport Ownership and Management from official FAA records

Ownership: Privately-owned
Owner: JEFFCO PORT DEVELOPMENT, INC.
900 AIRPORT ROAD
FESTUS, MO 63028
Phone 636-937-2228
Manager: JODY MOORE
900 ARPT RD
FESTUS, MO 63028
Phone 636-937-2228

Airport Operational Statistics

Aircraft based on the field: 25
Single engine airplanes: 24
Multi engine airplanes: 1
    
Aircraft operations: avg 25/day *
67% local general aviation
33% transient general aviation
<1% military
* for 12-month period ending 31 December 2019

Additional Remarks

NTSD RY SAFETY AREA BYND EACH RY END; RY 01 HAS ROLLING & STEEP TERRAIN; RY 19 HAS LARGE DROP OFF 118 FT FM RY END.
FOR CD CTC ST LOUIS APCH AT 314-890-1017.

Instrument Procedures

NOTE: All procedures below are presented as PDF files. If you need a reader for these files, you should download the free Adobe Reader.

NOT FOR NAVIGATION. Please procure official charts for flight.
FAA instrument procedures published for use from 26 January 2023 at 0901Z to 23 February 2023 at 0900z.

 
IAPs - Instrument Approach Procedures
RNAV (GPS)-A   download
NOTE: Special Take-Off Minimums/Departure Procedures apply   download (421KB)

Other nearby airports with instrument procedures:

8WC - Washington County Airport (23 nm SW)
KCPS - St Louis Downtown Airport (25 nm NE)
KFAM - Farmington Regional Airport (26 nm S)
KSUS - Spirit of St Louis Airport (31 nm NW)
KPCD - Perryville Regional Airport (32 nm SE)
 
Loc | Ops | Rwys | IFR | FBO | Links
Com | Nav | Svcs | Stats | Notes
Area around KFES (Festus Memorial Airport)
 
Road maps at: MapQuest Bing Google
 
Aerial photo
WARNING: Photo may not be current or correct
Aerial photo of KFES (Festus Memorial Airport)
Photo by Stephen Seek
Photo taken 28-Sep-2015
looking northwest.

Do you have a better or more recent aerial photo of Festus Memorial Airport that you would like to share? If so, please send us your photo.

 
Sectional chart

 
Airport distance calculator
Flying to Festus Memorial Airport? Find the distance to fly.

From to KFES

Sunrise and sunset
Times for 29-Jan-2023
 Local
(UTC-6)
 Zulu
(UTC)
Morning civil twilight06:4212:42
Sunrise07:1013:10
Sunset17:2023:20
Evening civil twilight17:4823:48

Current date and time
Zulu (UTC)  30-Jan-2023 00:34:24
Local (UTC-6)  29-Jan-2023 18:34:24
 
METAR
KCPS 
25nm NE 
292353Z 35007KT 10SM OVC008 M03/M06 A3027 RMK AO2 SLP255 T10331056 11022 21039 51017
KFAM 
26nm S 
292356Z AUTO 34006KT 7SM OVC006 M03/M04 A3023 RMK AO2 SLP258 60000 T10331044 11011 21033 53019 FZRANO
KSUS 
30nm NW 
300012Z 01004KT 2SM -SN BR OVC009 M04/M06 A3028 RMK AO2 CIG 006V014 P0000 T10441056
KPCD 
32nm SE 
300015Z AUTO 36010KT 10SM OVC008 M02/M02 A3026 RMK AO2 T10161020
KSAR 
32nm E 
300015Z AUTO 35008KT 10SM OVC007 M03/M03 A3027 RMK AO2 T10261031
KBLV 
33nm NE 
292355Z 35007KT 10SM OVC007 M03/M05 A3026 RMK AO2A PRESRR SLP256 T10331053 11021 21034 52022 $
KSTL 
33nm N 
292351Z 01007KT 3SM -FZDZ BR OVC007 M04/M06 A3026 RMK AO2 FZRAB25E33FZDZB33 CIG 006V010 SLP260 P0000 60000 T10391061 11022 21039 51013 $
KUUV 
37nm W 
300015Z AUTO 00000KT 5SM BR OVC005 M05/M05 A3029 RMK AO2
KSET 
44nm N 
292354Z AUTO 02010KT 8SM OVC012 M04/M06 A3027 RMK AO2 SLP255 I1001 I6001 T10391061 11033 21044 50011 $
KALN 
44nm N 
292350Z 35006KT 6SM BR OVC007 M04/M04 A3026
TAF
KCPS 
25nm NE 
291746Z 2918/3018 34011KT P6SM OVC012 FM300000 35008KT P6SM VCSH OVC020 FM300400 36010KT P6SM -PL SCT008 OVC012 FM301000 34011G17KT P6SM VCSH SCT008 OVC012 FM301400 34012KT P6SM OVC020 FM301700 34011KT P6SM BKN045
KSUS 
30nm NW 
292219Z 2922/3018 35010KT 5SM -FZDZ BR OVC009 TEMPO 3000/3004 2SM -FZDZ OVC004 FM300700 34011G17KT P6SM VCSH SCT006 OVC015 FM301300 34011KT P6SM OVC020 FM301600 35011KT P6SM BKN045
NOTAMs
Click for the latest NOTAMs
NOTAMs are issued by the DoD/FAA and will open in a separate window not controlled by AirNav.

 

 
 

Would you like to see your business listed on this page?

 If your business provides an interesting product or service to pilots, flight crews, aircraft, or users of the Festus Memorial Airport, you should consider listing it here.  To start the listing process, click on the button below
 
Add a business
 

Other Pages about Festus Memorial Airport

festusairport.net
 
Update a link
 
Copyright © AirNav, LLC. All rights reserved. Privacy Policy  Contact